Regional Weather Roundup
Issued by NWS

Home | Current Version | Previous Version | Text Only | Print | Product List | Glossary Off
Versions: 1 2 3 4 5 6 7 8 9 10 11 12 13 14 15 16 17 18 19 20 21 22 23 24 25 26 27 28 29 30 31 32 33 34 35 36 37 38 39 40 41 42 43 44 45 46 47 48 49 50

000
ASUS43 KLMK 240802
RWRKY
KENTUCKY REGIONAL WEATHER ROUNDUP
NATIONAL WEATHER SERVICE LOUISVILLE KY
400 AM EDT SAT JUN 24 2017

NOTE "FAIR" INDICATES FEW OR NO CLOUDS BELOW 12,000 FEET
WITH NO SIGNIFICANT WEATHER AND/OR OBSTRUCTIONS TO VISIBILITY.

KYZ001>023-026-027-061>063-070>075-240900-
WESTERN AND SOUTH CENTRAL KENTUCKY

CITY           SKY/WX    TMP DP  RH WIND       PRES   REMARKS
PADUCAH        CLOUDY    69  59  70 N9        29.95R
HENDERSON      CLOUDY    68  62  81 NW6       29.95R
OWENSBORO      PTCLDY    68  67  96 NW12      29.93R
HOPKINSVILLE   MOCLDY    69  69 100 W3        29.94R
BOWLING GREEN  CLEAR     71  69  93 CALM      29.92R
GLASGOW        NOT AVBL
$$

KYZ024-025-028>034-038-045-046-053-240900-
NORTH CENTRAL KENTUCKY

CITY           SKY/WX    TMP DP  RH WIND       PRES   REMARKS
LOUISVILLE/SDF CLEAR     67  66  97 CALM      29.90R
LOUISVILLE/LOU FOG       66  66 100 CALM      29.90S VSB 1/2
FORT KNOX      FOG       64  64 100 CALM      29.90S VSB 1/2
$$

KYZ035>037-039>044-047>052-055>060-089>105-240900-
NORTHEAST KENTUCKY

CITY           SKY/WX    TMP DP  RH WIND       PRES   REMARKS
LEXINGTON      FOG       67  65  93 NW5       29.90S VSB 1/2
COVINGTON      FOG       62  61  96 SW3       29.88S VSB 1/2
FRANKFORT      FOG       65  62  90 CALM      29.89S VSB 1/2
$$

KYZ054-064>069-076>088-106>120-240900-
SOUTHEAST KENTUCKY

CITY           SKY/WX    TMP DP  RH WIND       PRES   REMARKS
JACKSON        LGT RAIN  65  65 100 CALM      29.91R
LONDON         CLOUDY    68  66  93 CALM      29.91R
SOMERSET       CLOUDY    68  68 100 CALM      29.92R
MIDDLESBORO    CLOUDY    67  67 100 CALM      29.94R
MONTICELLO     CLOUDY    71  71 100 W10       29.92S
$$





USA.gov is the U.S. government's official web portal to all federal, state and local government web resources and services.